Location: Al Mulaqqa?ah
(24.1833°N, 32.8833°E)
Time: 22:43:08
(UTC+00:00)

Daily predictions for brighter satellites

Satellite Brightness Start Highest point End
(mag) Time Altitude Azimuth Time Altitude Azimuth Time Altitude Azimuth
Intelsat 5-1 Rocket 1.9 15:54:42 10° W 15:57:18 59° S 16:02:24 10° ESE
Cosmos 1777 Rocket 4.3 15:53:32 10° S 15:58:32 47° ESE 16:03:32 10° NNE
Cosmos 1733 Rocket 4.2 15:55:07 10° SSW 15:59:17 49° W 16:03:27 10° N
Geosat 4.3 15:55:32 10° NE 16:00:21 47° ESE 16:05:09 10° S
COSMO-SKYMED 1 3.3 15:56:29 10° N 16:00:46 61° WNW 16:05:01 10° SSW
Cosmos 1656 Rocket 4.0 15:59:17 10° S 16:04:33 43° ESE 16:09:46 10° NE
CZ-2D R/B 3.4 16:00:57 10° S 16:04:43 79° W 16:08:29 10° NNW
Cosmos 921 Rocket 3.4 16:00:54 10° NNW 16:05:05 66° W 16:09:12 10° S
Cosmos 2154 Rocket 4.4 15:59:41 10° SSE 16:05:34 42° E 16:11:29 10° NNE
Hubble Space Telescope 3.6 16:06:59 10° SW 16:07:51 11° SSW 16:08:43 10° SSW
ASTRO E2 3.2 16:04:25 10° W 16:08:19 53° NNW 16:12:12 10° ENE
ATLAS 3B CENTAUR R/B 1.9 16:04:54 10° W 16:10:16 47° N 16:13:12 10° ENE
Cosmos 1782 Rocket 4.4 16:07:03 10° SSE 16:10:54 29° E 16:14:44 10° NNE
deb Chang Zheng 4 4.5 16:07:58 10° S 16:12:06 53° W 16:16:13 10° NNW
GPS 2-18 Rocket1 4.1 16:09:00 10° WSW 16:12:22 35° S 16:15:42 10° ESE
H-2A R/B 3.1 16:09:05 10° SE 16:13:10 39° ENE 16:17:20 10° N
H-2A R/B 1.9 16:13:29 10° NNE 16:17:33 60° E 16:21:34 10° S
Cosmos 1674 4.3 16:15:35 10° NE 16:17:50 15° E 16:19:26 12° ESE
Feng Yun 1-1 Rocket 4.5 16:13:22 10° SE 16:18:27 44° ENE 16:23:32 10° N
CZ-4B R/B 3.4 16:13:10 10° S 16:18:33 78° WSW 16:24:04 10° NNW
Cosmos 1805 4.2 16:16:40 10° SSE 16:19:53 26° E 16:23:08 10° NE
Cosmos 1315 Rocket 3.9 16:18:44 10° SE 16:21:52 23° E 16:25:02 10° NE
ATLAS 2A CENTAUR R/B 2.7 16:10:57 10° W 16:22:03 68° N 16:24:42 15° E
Cosmos 2263 4.1 16:18:00 10° S 16:23:34 73° ESE 16:29:08 10° NNE
DMSP B5D1-3 4.5 16:19:42 10° NNE 16:24:46 67° ESE 16:29:50 10° S
Cosmos 1400 Rocket 3.4 16:21:09 10° SSW 16:25:13 64° W 16:29:16 10° N
ATLAS CENTAUR R/B 2.8 16:21:48 10° N 16:25:50 26° ENE 16:28:42 16° ESE
NOSS 3-2 (C) 4.0 16:25:08 10° SSE 16:29:24 25° ESE 16:33:53 10° NE
CZ-4 R/B 1.7 16:27:19 10° SE 16:30:54 40° ENE 16:34:30 10° N
OAO 2 Rocket 3.5 16:25:41 10° WNW 16:30:59 68° NNE 16:34:52 18° ESE
SL-08 RB Rocket 3.8 16:30:30 10° SSE 16:34:50 52° ENE 16:39:09 10° N
Cosmos 1707 2.6 16:31:53 10° N 16:35:47 82° E 16:39:39 10° S
CENTAUR R/B 2.4 16:31:04 10° S 16:36:00 44° ESE 16:41:39 10° NE
In-Cosmos 22 4.0 16:32:31 10° N 16:37:46 67° E 16:43:06 10° SSE
Cosmos 1461 2.8 16:34:30 10° NNW 16:38:21 55° ENE 16:41:10 17° SE
CZ-4B R/B 1.3 16:35:57 10° NNE 16:39:02 52° E 16:42:10 10° S
Meteor 1-21 4.5 16:33:59 10° NNW 16:39:34 73° W 16:45:07 10° S
Cosmos 1733 3.5 16:36:12 10° SSE 16:39:46 42° E 16:43:21 10° NNE
Cosmos 1340 3.3 16:36:09 10° NNW 16:39:51 57° W 16:43:31 10° S
Cosmos 1300 Rocket 4.3 16:39:03 10° SSE 16:42:51 29° E 16:46:38 10° NNE
Okean-O 3.3 16:42:05 21° ESE 16:44:09 32° ENE 16:48:04 10° NNE
KORONAS-FOTON 4.1 16:41:54 10° NNE 16:45:28 40° E 16:47:20 23° SE
EPKM 4.0 16:44:10 10° W 16:47:21 62° S 16:54:34 20° ESE
Okean 2 4.2 16:44:01 10° NNW 16:48:00 53° W 16:51:58 10° S
Cosmos 1766 3.6 16:46:16 10° SSE 16:49:55 39° E 16:53:34 10° NNE
Cosmos 1975 Rocket 4.0 16:46:06 10° NNE 16:49:30 27° ENE 16:49:30 27° ENE
BREEZE-M DEB (TANK) 1.7 16:48:47 10° NW 16:52:16 69° SW 16:52:57 41° SSE
Fermi 4.1 16:48:51 10° W 16:52:52 55° SSW 16:54:26 33° SE
Cosmos 2341 Rocket 4.0 16:52:12 10° S 16:58:20 57° E 17:04:32 10° NNE
Cosmos 783 Rocket 4.4 16:53:20 10° N 16:58:34 63° ENE 17:02:15 19° SSE
Skynet4D Del rocket 3.8 16:53:20 10° W 16:58:40 62° SSW 17:01:28 30° SE
USA 238 DEB 3.4 16:53:23 10° SSW 16:59:42 70° ESE 17:06:13 10° NNE
USA 238 3.4 16:53:31 10° SSW 16:59:48 69° ESE 17:06:19 10° NNE
Atlas Centaur 2 3.5 16:52:13 10° WNW 17:00:21 56° N 17:05:23 26° ENE
ARGOS 3.9 16:55:31 10° S 17:00:43 54° W 17:05:57 10° NNW
HJ-1C 3.3 17:00:45 23° S 17:02:38 78° W 17:05:54 10° NNW
Cosmos 2218 Rocket 4.3 17:00:58 10° SSE 17:06:37 40° E 17:12:19 10° NNE
IRIS 4.4 17:05:12 10° SW 17:07:27 61° SSW 17:07:27 61° SSW
H-2A R/B 4.4 17:04:27 10° SSW 17:08:17 22° W 17:12:12 10° NW
NOSS 3-2 (A) 3.7 17:03:15 10° SW 17:08:24 59° WNW 17:14:04 10° NNE
YAOGAN 1 3.2 17:05:49 10° S 17:10:02 56° W 17:14:17 10° NNW
Okean O Rocket 4.5 17:09:14 10° SW 17:12:14 18° W 17:15:13 10° NW
SJ 16-02 3.3 17:09:19 10° SW 17:13:11 29° WNW 17:17:03 10° NNW
Cosmos 1346 Rocket 3.0 17:15:54 10° N 17:19:12 59° N 17:19:12 59° N
IRS-1C Rocket 4.4 17:19:58 10° S 17:25:10 65° WSW 17:30:23 10° NNW
COSMOS 2455 3.7 17:29:28 10° NW 17:35:12 47° WSW 17:39:43 16° S
SEDSat Delta rocket 3.7 17:30:31 10° WNW 17:37:13 77° NNE 17:37:42 73° ENE
CSL-04 Debris 4.2 17:36:45 45° S 17:38:26 74° WSW 17:43:49 10° NNW
Aurora 2 Rocket 3.2 17:33:00 10° WSW 17:37:54 55° SW 17:37:54 55° SW
GPS 2-17 Rocket1 4.3 17:35:31 10° WSW 17:38:43 35° SW 17:38:43 35° SW
Palapa 6 Rocket 4.1 17:37:01 10° W 17:43:53 79° S 17:44:42 71° SE
Lacrosse 5 rocket 3.4 17:51:20 10° NW 17:53:15 25° NW 17:53:15 25° NW
FALCON 9 R/B 4.1 16:09:12 10° W 18:04:27 82° N 18:09:11 54° ENE
ATLAS CENTAUR R/B 3.7 18:00:42 10° WNW 18:04:33 24° WSW 18:04:54 24° WSW
Intelsat 5-3 Rocket 4.4 18:04:42 10° W 18:06:34 32° W 18:06:34 32° W
Centaur AC-119 4.5 18:03:37 10° W 18:09:02 78° SSW 18:10:36 67° SE
Atlas Centaur 2 3.9 18:42:21 10° WNW 18:47:58 44° NW 18:47:58 44° NW
